Weather observations for the past three days for
White Plains - Westchester County Airport
Metric (Imperial)
Date Time (edt) Wind (kph) Vis. (km) Weather Sky Cond. Temperature (ºC) Relative Humidity Wind Chill (°C) Heat Index (°C) Pressure Precipitation (cm)
Air Dwpt 6 hour altimeter (cm) sea level (mb) 1 hr 3 hr 6 hr
Max. Min.
25 00:56 N 9 16.09 Fair CLR 19.4 9.4 53% 75.79 1009.9
24 23:56 NW 9 16.09 Fair CLR 17.8 11.1 65% 75.82 1010.2
24 22:56 Calm 16.09 Fair CLR 18.3 11.1 63% 75.74 1009.2
24 21:56 Calm 16.09 Fair CLR 18.3 12.2 68% 75.74 1009.4
24 20:56 NW 6 16.09 Fair CLR 21.1 11.1 53% 75.69 1008.6
24 19:56 W 9 16.09 Fair CLR 23.9 9.4 28.3 23.9 40% 25 75.67 1008.2
24 18:56 NW 17 16.09 Fair CLR 26.7 8.9 33% 26 75.67 1008.3
24 17:56 NW 17 16.09 Fair CLR 27.2 10 34% 27 75.67 1008.3
24 16:56 W 13 16.09 Fair CLR 27.8 8.3 29% 27 75.64 1007.9
24 15:56 NW 11 16.09 Fair CLR 27.8 10 33% 27 75.64 1007.9
24 14:56 W 11 16.09 Fair CLR 27.8 8.9 31% 27 75.69 1008.4
24 13:56 W 15 G 33 16.09 Fair CLR 27.2 8.9 27.2 21.1 32% 27 75.74 1009.1
24 12:56 NW 15 16.09 Fair CLR 26.7 10 35% 26 75.77 1009.6
24 11:56 W 13 16.09 Fair CLR 26.1 8.9 34% 26 75.79 1010.0
24 10:56 NW 13 16.09 Fair CLR 25.6 10.6 39% 26 75.84 1010.5
24 09:56 W 15 16.09 Fair CLR 24.4 14.4 54% 26 75.87 1010.9
24 08:56 Calm 16.09 Fair CLR 23.9 15.6 60% 25 75.9 1011.1
24 07:56 NW 11 16.09 Fair CLR 20.6 16.1 20.6 16.1 76% 75.9 1011.2
24 06:56 Calm 16.09 Fair CLR 18.9 17.2 90% 75.87 1010.9
24 05:56 NW 11 9.66 Fog/Mist CLR 16.7 15.6 93% 75.82 1010.5
24 04:56 Calm 12.87 Fair CLR 17.2 15.6 90% 75.82 1010.3
24 03:56 NW 7 16.09 Fair CLR 17.2 16.7 97% 75.82 1010.3
24 02:56 NW 7 14.48 Fair CLR 17.2 16.1 93% 75.82 1010.2
24 01:56 NW 6 16.09 Fair CLR 18.3 16.7 22.8 17.8 90% 75.82 1010.5 0.03
24 00:56 NW 6 16.09 Fair CLR 18.3 16.7 90% 75.84 1010.7
23 23:56 Calm 16.09 Fair CLR 19.4 16.7 84% 75.84 1010.8
23 22:56 W 6 16.09 Partly Cloudy SCT090 20.6 17.2 81% 75.84 1010.7 0.03 0.03
23 21:56 Calm 16.09 Partly Cloudy SCT055 21.7 17.8 79% 75.84 1010.7
23 20:56 Calm 16.09 Partly Cloudy SCT046 20.6 17.8 84% 75.82 1010.5
23 19:56 S 6 16.09 Partly Cloudy SCT049 22.8 18.3 26.1 22.2 76% 75.79 1010.1
23 18:56 S 7 16.09 A Few Clouds FEW030 24.4 17.8 67% 25 75.79 1009.9
23 17:56 S 7 16.09 A Few Clouds FEW035 25 17.8 64% 26 75.82 1010.2
23 16:56 W 9 16.09 Partly Cloudy SCT035 25.6 17.2 60% 27 75.82 1010.2
23 15:56 W 6 16.09 A Few Clouds FEW034 26.1 18.3 62% 27 75.84 1010.4
23 14:56 W 15 16.09 Partly Cloudy SCT020 25.6 17.8 62% 27 75.87 1011.0
23 13:56 NW 17 16.09 Partly Cloudy SCT020 24.4 18.3 24.4 19.4 69% 25 75.9 1011.3 4.01
23 12:56 SE 11 16.09 Partly Cloudy SCT020 23.3 19.4 79% 75.9 1011.4
23 11:56 Vrbl 6 16.09 Partly Cloudy SCT110 22.8 18.3 76% 75.87 1011.0
23 10:56 NW 19 12.87 Overcast SCT023 BKN080 OVC100 20.6 18.9 90% 75.92 1011.8 3.89 4.01
23 09:56 Vrbl 6 11.27 Light Rain SCT030 BKN050 21.1 17.8 82% 75.82 1010.4 0.13
23 08:56 Calm 16.09 Mostly Cloudy BKN075 BKN090 21.1 17.2 79% 75.82 1010.3
23 07:56 S 11 16.09 Mostly Cloudy BKN075 BKN090 20 16.7 20 17.2 81% 75.84 1010.7
23 06:56 S 11 16.09 A Few Clouds FEW090 19.4 16.1 81% 75.82 1010.3
23 05:56 SE 6 16.09 Partly Cloudy FEW075 SCT120 17.2 15.6 90% 75.82 1010.3
23 04:56 Calm 16.09 Partly Cloudy SCT120 18.3 15.6 84% 75.84 1010.4
23 03:56 Calm 16.09 Partly Cloudy SCT110 18.3 15.6 84% 75.84 1010.5
23 02:56 Calm 16.09 Partly Cloudy SCT120 18.3 15.6 84% 75.84 1010.7
23 01:56 Calm 16.09 Partly Cloudy SCT120 19.4 16.1 21.7 17.8 81% 75.9 1011.2
23 00:56 SE 6 16.09 Fair CLR 18.3 15.6 84% 75.9 1011.4
22 23:56 Calm 16.09 Fair CLR 18.9 15.6 81% 75.92 1011.5
22 22:56 SE 6 16.09 Fair CLR 18.3 15 81% 75.92 1011.5
22 21:56 Calm 16.09 Fair CLR 20 15.6 76% 75.97 1012.2
22 20:56 Calm 16.09 Fair CLR 20 15 73% 75.92 1011.6
22 19:56 SE 9 16.09 Fair CLR 21.7 14.4 28.3 21.7 63% 75.9 1011.4
22 18:56 S 13 16.09 A Few Clouds FEW040 23.3 15 60% 75.9 1011.5
22 17:56 S 15 G 31 16.09 A Few Clouds FEW040 23.9 15.6 60% 25 75.92 1011.9
22 16:56 S 20 G 31 16.09 A Few Clouds FEW040 25.6 16.1 56% 26 75.95 1012.1
22 15:56 SW 20 G 35 16.09 A Few Clouds FEW040 26.7 16.7 54% 27 75.97 1012.2
22 14:56 S 20 G 31 16.09 Fair CLR 27.8 16.7 51% 28 75.95 1012.2
22 13:56 S 24 G 31 16.09 Fair CLR 28.3 17.2 28.9 21.1 51% 29 76 1012.5
22 12:56 Vrbl 11 16.09 A Few Clouds FEW110 27.8 16.1 49% 28 76.05 1013.2
22 11:56 S 13 16.09 Fair CLR 27.2 16.1 51% 28 76.1 1013.8
22 10:56 W 9 16.09 Fair CLR 26.1 16.1 54% 27 76.12 1014.5
22 09:56 W 17 16.09 Fair CLR 25 16.1 58% 26 76.17 1015.0
22 08:56 W 13 16.09 Fair CLR 23.3 16.1 64% 76.17 1015.2
22 07:56 SW 7 16.09 Fair CLR 21.1 16.1 21.1 14.4 73% 76.17 1015.2
22 06:56 Calm 16.09 Fair CLR 19.4 16.1 81% 76.2 1015.3
22 05:56 Calm 14.48 Fair CLR 15 13.9 93% 76.17 1015.3
22 04:56 Calm 16.09 Fair CLR 16.7 14.4 86% 76.12 1014.4
22 03:56 Calm 9.66 Fog/Mist CLR 15.6 13.9 90% 76.1 1014.0
22 02:56 Calm 16.09 Fair CLR 15.6 13.9 90% 76.07 1013.8
22 01:56 Calm 16.09 Fair CLR 16.1 14.4 21.7 15.6 90% 76.1 1014.1
Date Time (edt) Wind (kph) Vis. (km) Weather Sky Cond. Air Dwpt Max. Min. Relative Humidity Wind Chill (°C) Heat Index (°C) altimeter (cm) sea level (mb) 1 hr 3 hr 6 hr
6 hour
Temperature (ºC) Pressure Precipitation (cm)